Regional Weather Roundup
Issued by NWS

Home | Current Version | Previous Version | Graphics & Text | Print | Product List | Glossary On
Versions: 1 2 3 4 5 6 7 8 9 10 11 12 13 14 15 16 17 18 19 20 21 22 23 24 25 26 27 28 29 30 31 32 33 34 35 36 37 38 39 40 41 42 43 44 45 46 47 48 49 50
000
ASUS43 KLMK 011402
RWRKY
KENTUCKY REGIONAL WEATHER ROUNDUP
NATIONAL WEATHER SERVICE LOUISVILLE KY
1000 AM EDT SUN MAY 01 2016

NOTE "FAIR" INDICATES FEW OR NO CLOUDS BELOW 12,000 FEET
WITH NO SIGNIFICANT WEATHER AND/OR OBSTRUCTIONS TO VISIBILITY.

KYZ001>023-026-027-061>063-070>075-011500-
WESTERN AND SOUTH CENTRAL KENTUCKY

CITY           SKY/WX    TMP DP  RH WIND       PRES   REMARKS
PADUCAH        CLOUDY    68  63  84 SE6       29.90F
HENDERSON      SUNNY     68  57  68 S6        29.90R
OWENSBORO      SUNNY     68  62  80 S9        29.92R
HOPKINSVILLE   NOT AVBL
BOWLING GREEN  CLOUDY    70  65  84 SW7       29.95R
GLASGOW        NOT AVBL
$$

KYZ024-025-028>034-038-045-046-053-011500-
NORTH CENTRAL KENTUCKY

CITY           SKY/WX    TMP DP  RH WIND       PRES   REMARKS
LOUISVILLE/SDF PTSUNNY   69  65  86 SE7       29.92R
LOUISVILLE/LOU CLOUDY    68  64  87 S6        29.93R
FORT KNOX      MOSUNNY   68  66  94 S7        29.92R
$$

KYZ035>037-039>044-047>052-055>060-089>105-011500-
NORTHEAST KENTUCKY

CITY           SKY/WX    TMP DP  RH WIND       PRES   REMARKS
LEXINGTON      CLOUDY    68  64  87 SW9       29.96S
COVINGTON      PTSUNNY   68  63  84 S7        29.92F
FRANKFORT      CLOUDY    68  63  84 SW5       29.94R
$$

KYZ054-064>069-076>088-106>120-011500-
SOUTHEAST KENTUCKY

CITY           SKY/WX    TMP DP  RH WIND       PRES   REMARKS
JACKSON        CLOUDY    62  61  96 VRB3      30.01S
LONDON         PTSUNNY   67  64  90 S6        29.99F
SOMERSET       NOT AVBL
MIDDLESBORO    NOT AVBL
MONTICELLO     PTSUNNY   72  66  81 W14       30.00S
$$





USA.gov is the U.S. government's official web portal to all federal, state and local government web resources and services.